Andrews, NC

7:15 AM EDT on May 27, 2017 (GMT -0400)
Andrews

Weather History for KRHP - February, 2013

Change the Weather History Date:

Sunday, February 17, 2013

  Actual Average (KMMI) Record (KMMI)
Temperature  
Mean Temperature 27 °F -  
Max Temperature 38 °F 53 °F 64 °F (2017)
Min Temperature 16 °F 31 °F 21 °F (2015)
Degree Days  
Heating Degree Days 38    
Moisture  
Dew Point 11 °F    
Average Humidity 53    
Maximum Humidity 82    
Minimum Humidity 28    
Precipitation  
Precipitation 0.00 in - - ()
Sea Level Pressure  
Sea Level Pressure 30.16 in    
Wind  
Wind Speed 4 mph (West)    
Max Wind Speed 16 mph    
Max Gust Speed 24 mph    
Visibility 10 miles    
Events      
Averages and records for this station are not official NWS values.
T = Trace of Precipitation, MM = Missing Value Source: NWS Daily Summary

Daily Weather History Graph

Daily Weather History Graph

Search for Another Location

Airport or City:

Trip Planner

Search our weather history database for the weather conditions in past years. The results will help you decide how hot, cold, wet, or windy it might be!

Date:

Astronomy

Feb. 17, 2013 Rise Set
Actual Time 7:19 AM EST 6:20 PM EST
Civil Twilight 6:53 AM EST 6:46 PM EST
Nautical Twilight 6:23 AM EST 7:15 PM EST
Astronomical Twilight 5:54 AM EST 7:45 PM EST
Moon 11:29 AM EST (2/17) 12:57 AM EST (2/17)
Length of Visible Light 11h 52m
Length of Day
11h 00m
Waxing Crescent, 49% of the Moon is Illuminated
Feb 17
Waxing Crescent
Feb 17
First Quarter
Feb 25
Full
Mar 4
Last Quarter
Mar 11
New

Hourly Weather History & Observations

Time (EST) Temp. Windchill Dew Point Humidity Pressure Visibility Wind Dir Wind Speed Gust Speed Precip Events Conditions
12:15 AM 23.0 °F 18.4 °F 9.5 °F 56% 30.08 in 10.0 mi WSW 3.5 mph - N/A   Clear
12:35 AM 24.8 °F 20.5 °F 6.1 °F 45% 30.08 in 10.0 mi NNE 3.5 mph - N/A   Clear
12:55 AM 24.3 °F - 6.4 °F 47% 30.08 in 10.0 mi Calm Calm - N/A   Clear
1:15 AM 23.9 °F - 5.9 °F 46% 30.09 in 10.0 mi Calm Calm - N/A   Clear
1:35 AM 24.3 °F - 4.3 °F 42% 30.09 in 10.0 mi Calm Calm - N/A   Scattered Clouds
1:55 AM 22.6 °F 18.0 °F 7.2 °F 52% 30.09 in 10.0 mi NNW 3.5 mph - N/A   Scattered Clouds
2:15 AM 21.4 °F - 7.3 °F 55% 30.10 in 10.0 mi Calm Calm - N/A   Scattered Clouds
2:35 AM 23.0 °F - 6.8 °F 50% 30.09 in 10.0 mi Calm Calm - N/A   Clear
2:55 AM 21.9 °F - 7.5 °F 54% 30.10 in 10.0 mi Calm Calm - N/A   Clear
3:15 AM 21.2 °F - 8.6 °F 58% 30.10 in 10.0 mi Calm Calm - N/A   Clear
3:35 AM 20.5 °F - 9.3 °F 62% 30.11 in 10.0 mi Calm Calm - N/A   Clear
3:55 AM 19.6 °F 14.5 °F 8.8 °F 63% 30.10 in 10.0 mi South 3.5 mph - N/A   Clear
4:15 AM 22.3 °F 17.6 °F 7.0 °F 52% 30.10 in 10.0 mi North 3.5 mph - N/A   Clear
4:35 AM 22.8 °F - 6.3 °F 49% 30.10 in 10.0 mi Calm Calm - N/A   Clear
4:55 AM 21.9 °F - 6.8 °F 52% 30.10 in 10.0 mi Calm Calm - N/A   Clear
5:15 AM 22.3 °F - 6.8 °F 52% 30.11 in 10.0 mi Calm Calm - N/A   Clear
5:35 AM 19.9 °F - 8.2 °F 61% 30.12 in 10.0 mi Calm Calm - N/A   Clear
5:55 AM 18.0 °F - 9.0 °F 68% 30.12 in 10.0 mi Calm Calm - N/A   Clear
6:15 AM 18.3 °F - 9.5 °F 68% 30.13 in 10.0 mi Calm Calm - N/A   Clear
6:35 AM 18.0 °F - 9.3 °F 69% 30.14 in 10.0 mi Calm Calm - N/A   Clear
6:55 AM 18.0 °F - 10.0 °F 71% 30.14 in 10.0 mi Calm Calm - N/A   Clear
7:15 AM 16.7 °F - 9.9 °F 74% 30.15 in 10.0 mi Calm Calm - N/A   Clear
7:35 AM 16.9 °F - 9.9 °F 74% 30.16 in 10.0 mi Calm Calm - N/A   Clear
7:55 AM 17.6 °F - 10.0 °F 72% 30.16 in 10.0 mi Calm Calm - N/A   Clear
8:15 AM 19.6 °F - 12.0 °F 72% 30.16 in 10.0 mi Calm Calm - N/A   Clear
8:35 AM 21.9 °F - 10.8 °F 62% 30.17 in 10.0 mi Calm Calm - N/A   Clear
8:55 AM 24.1 °F 19.7 °F 12.7 °F 62% 30.17 in 10.0 mi SSW 3.5 mph - N/A   Clear
9:15 AM 26.2 °F 20.7 °F 12.4 °F 56% 30.17 in 10.0 mi SE 4.6 mph - N/A   Clear
9:35 AM 28.9 °F 22.8 °F 7.9 °F 41% 30.18 in 10.0 mi WNW 5.8 mph 17.3 mph N/A   Clear
9:55 AM 29.7 °F 19.1 °F 6.3 °F 37% 30.18 in 10.0 mi NNW 13.8 mph 24.2 mph N/A   Clear
10:15 AM 30.7 °F 20.4 °F 6.3 °F 36% 30.19 in 10.0 mi NNW 13.8 mph 18.4 mph N/A   Clear
10:35 AM 31.8 °F 21.8 °F 7.0 °F 35% 30.20 in 10.0 mi NNW 13.8 mph 20.7 mph N/A   Clear
10:55 AM 31.8 °F 21.4 °F 7.0 °F 35% 30.20 in 10.0 mi North 15.0 mph 23.0 mph N/A   Clear
11:15 AM 32.0 °F 24.2 °F 6.3 °F 34% 30.20 in 10.0 mi North 9.2 mph 21.9 mph N/A   Clear
11:35 AM 32.7 °F 23.4 °F 6.1 °F 33% 30.20 in 10.0 mi NW 12.7 mph 20.7 mph N/A   Clear
12:15 PM 34.5 °F 24.5 °F 5.9 °F 30% 30.19 in 10.0 mi NNE 16.1 mph 23.0 mph N/A   Clear
12:35 PM 35.1 °F 26.4 °F 5.5 °F 29% 30.18 in 10.0 mi North 12.7 mph 21.9 mph N/A   Clear
12:55 PM 35.2 °F 28.8 °F 4.8 °F 28% 30.18 in 10.0 mi West 8.1 mph - N/A   Clear
1:15 PM 36.0 °F 30.3 °F 10.0 °F 34% 30.18 in 10.0 mi SW 6.9 mph - N/A   Clear
1:55 PM 36.9 °F 31.4 °F 12.0 °F 36% 30.17 in 10.0 mi West 6.9 mph 10.4 mph N/A   Scattered Clouds
2:08 PM 37.4 °F 29.3 °F 12.2 °F 36% 30.16 in 10.0 mi WSW 12.7 mph - N/A   Scattered Clouds
2:15 PM 37.2 °F 29.6 °F 12.7 °F 37% 30.17 in 10.0 mi WSW 11.5 mph - N/A   Clear
2:35 PM 37.4 °F 31.4 °F 12.7 °F 36% 30.16 in 10.0 mi SW 8.1 mph - N/A   Clear
2:55 PM 37.6 °F 29.6 °F 14.2 °F 38% 30.16 in 10.0 mi WSW 12.7 mph 18.4 mph N/A   Clear
3:15 PM 38.1 °F 30.7 °F 13.1 °F 36% 30.16 in 10.0 mi SW 11.5 mph 16.1 mph N/A   Scattered Clouds
3:35 PM 37.8 °F 31.8 °F 13.5 °F 37% 30.16 in 10.0 mi WSW 8.1 mph 11.5 mph N/A   Scattered Clouds
3:55 PM 38.1 °F 30.2 °F 13.5 °F 36% 30.15 in 10.0 mi WSW 12.7 mph - N/A   Clear
4:15 PM 38.3 °F 31.4 °F 13.1 °F 36% 30.16 in 10.0 mi West 10.4 mph 16.1 mph N/A   Clear
4:35 PM 38.1 °F 31.2 °F 13.8 °F 37% 30.16 in 10.0 mi WSW 10.4 mph - N/A   Clear
4:55 PM 37.8 °F 31.3 °F 13.3 °F 37% 30.16 in 10.0 mi WSW 9.2 mph - N/A   Clear
5:15 PM 37.4 °F 29.8 °F 13.1 °F 37% 30.17 in 10.0 mi WSW 11.5 mph - N/A   Clear
5:35 PM 36.7 °F 29.4 °F 14.0 °F 39% 30.18 in 10.0 mi West 10.4 mph - N/A   Clear
5:55 PM 35.6 °F 28.0 °F 14.4 °F 42% 30.18 in 10.0 mi West 10.4 mph - N/A   Clear
6:15 PM 32.5 °F 27.1 °F 14.7 °F 48% 30.18 in 10.0 mi West 5.8 mph - N/A   Clear
6:35 PM 31.5 °F - 15.4 °F 52% 30.19 in 10.0 mi Calm Calm - N/A   Clear
6:55 PM 29.8 °F 24.9 °F 14.2 °F 52% 30.19 in 10.0 mi NNW 4.6 mph - N/A   Clear
7:15 PM 28.6 °F 24.8 °F 14.9 °F 57% 30.20 in 10.0 mi NNE 3.5 mph - N/A   Clear
7:35 PM 27.9 °F - 15.8 °F 61% 30.20 in 10.0 mi Calm Calm - N/A   Clear
7:55 PM 27.3 °F - 16.3 °F 63% 30.20 in 10.0 mi Calm Calm - N/A   Clear
8:15 PM 27.0 °F - 17.4 °F 67% 30.21 in 10.0 mi Calm Calm - N/A   Clear
8:35 PM 26.2 °F - 17.2 °F 69% 30.22 in 10.0 mi Calm Calm - N/A   Clear
8:55 PM 26.1 °F - 16.3 °F 67% 30.22 in 10.0 mi Calm Calm - N/A   Clear
9:15 PM 25.5 °F - 16.2 °F 68% 30.23 in 10.0 mi Calm Calm - N/A   Clear
9:35 PM 25.5 °F - 17.8 °F 72% 30.23 in 10.0 mi Calm Calm - N/A   Clear
9:55 PM 24.4 °F - 17.6 °F 75% 30.24 in 10.0 mi Calm Calm - N/A   Clear
10:15 PM 24.4 °F - 15.8 °F 70% 30.24 in 10.0 mi Calm Calm - N/A   Clear
10:35 PM 24.1 °F - 17.2 °F 75% 30.25 in 10.0 mi Calm Calm - N/A   Clear
10:55 PM 23.4 °F - 17.1 °F 77% 30.24 in 10.0 mi Calm Calm - N/A   Clear
11:15 PM 23.4 °F - 18.3 °F 81% 30.24 in 10.0 mi Calm Calm - N/A   Clear
11:35 PM 22.6 °F - 18.0 °F 82% 30.24 in 10.0 mi Calm Calm - N/A   Clear
11:55 PM 23.0 °F - 16.7 °F 77% 30.25 in 10.0 mi Calm Calm - N/A   Clear